SCP
0 0 0 0 0 0 0 0 0 0 0 0 0 0 0 0 0 0 0 0 0 0 0 0 0 0 0 0 0 0 0 0 0 0 0 0 0 0 0 0 0 0 0
0 0 0 0 0 0 0 0 0 0 0 0 0 0 0 0 0 0 0 0 0 0 0 0 0 0 0 0 0 0 0 0 0 0 0 0 0 0 0 0 0 0 0
0 0 0 0 0 0 0 0 0 0 0 0 0 0 0 0 0 0 0 0 0 0 0 0 0 0 0 0 0 0 0 0 0 0 0 0 0 0 0 0 0 0 0
0 0 0 0 0 0 0 0 0 0 0 0 0 0 0 0 0 0 0 0 0 0 0 0 0 0 0 0 0 0 0 0 0 0 0 0 0 0 0 0 0 0 0
0 0 0 0 0 0 0 0 0 0 0 0 0 0 0 0 0 0 0 0 0 0 0 0 0 0 0 0 0 0 0 0 0 0 0 0 0 0 0 0 0 0 0
0 0 0 0 0 0 0 0 0 0 0 0 0 0 0 0 0 0 0 0 0 0 0 0 0 0 0 0 0 0 0 0 0 0 0 0 0 0 0 0 0 0 0
0 0 0 0 0 0 0 0 0 0 0 0 0 0 0 0 0 0 0 0 0 0 0 0 0 0 0 0 0 0 0 0 0 0 0 0 0 0 0 0 0 0 0
0 0 0 0 0 0 0 0 0 0 0 0 0 0 0 0 0 0 0 0 0 0 0 0 0 0 0 0 0 0 0 0 0 0 0 0 0 0 0 0 0 0 0
0 0 0 0 0 0 0 0 0 0 0 0 0 0 0 0 0 0 0 0 0 0 0 0 0 0 0 0 0 0 0 0 0 0 0 0 0 0 0 0 0 0 0
0 0 0 0 0 0 0 0 0 0 0 0 0 0 0 0 0 0 0 0 0 0 0 0 0 0 0 0 0 0 0 0 0 0 0 0 0 0 0 0 0 0 0
0 0 0 0 0 0 0 0 0 0 0 0 0 0 0 0 0 0 0 0 0 0 0 0 0 0 0 0 0 0 0 0 0 0 0 0 0 0 0 0 0 0 0
0 0 0 0 0 0 0 0 0 0 0 0 0 0 0 0 0 0 0 0 0 0 0 0 0 0 0 0 0 0 0 0 0 0 0 0 0 0 0 0 0 0 0
0 0 0 0 0 0 0 0 0 0 0 0 0 0 0 0 0 0 0 0 0 0 0 0 0 0 0 0 0 0 0 0 0 0 0 0 0 0 0 0 0 0 0
0 0 0 0 0 0 0 0 0 0 0 0 0 0 0 0 0 0 0 0 0 0 0 0 0 0 0 0 0 0 0 0 0 0 0 0 0 0 0 0 0 0 0
0 0 0 0 0 0 0 0 0 0 0 0 0 0 0 0 0 0 0 0 0 0 0 0 0 0 0 0 0 0 0 0 0 0 0 0 0 0 0 0 0 0 0
0 0 0 0 0 0 0 0 0 0 0 0 0 0 0 0 0 0 0 0 0 0 0 0 0 0 0 0 0 0 0 0 0 0 0 0 0 0 0 0 0 0 0
0 0 0 0 0 0 0 0 0 0 0 0 0 0 0 0 0 0 0 0 0 0 0 0 0 0 0 0 0 0 0 0 0 0 0 0 0 0 0 0 0 0 0
0 0 0 0 0 0 0 0 0 0 0 0 0 0 0 0 0 0 0 0 0 0 0 0 0 0 0 0 0 0 0 0 0 0 0 0 0 0 0 0 0 0 0
0 0 0 0 0 0 0 0 0 0 0 0 0 0 0 0 0 0 0 0 0 0 0 0 0 0 0 0 0 0 0 0 0 0 0 0 0 0 0 0 0 0 0
0 0 0 0 0 0 0 0 0 0 0 0 0 0 0 0 0 0 0 0 0 0 0 0 0 0 0 0 0 0 0 0 0 0 0 0 0 0 0 0 0 0 0
0 0 0 0 0 0 0 0 0 0 0 0 0 0 0 0 0 0 0 0 0 0 0 0 0 0 0 0 0 0 0 0 0 0 0 0 0 0 0 0 0 0 0
0 0 0 0 0 0 0 0 0 0 0 0 0 0 0 0 0 0 0 0 0 0 0 0 0 0 0 0 0 0 0 0 0 0 0 0 0 0 0 0 0 0 0
0 0 0 0 0 0 0 0 0 0 0 0 0 0 0 0 0 0 0 0 0 0 0 0 0 0 0 0 0 0 0 0 0 0 0 0 0 0 0 0 0 0 0
0 0 0 0 0 0 0 0 0 0 0 0 0 0 0 0 0 0 0 0 0 0 0 0 0 0 0 0 0 0 0 0 0 0 0 0 0 0 0 0 0 0 0
0 0 0 0 0 0 0 0 0 0 0 0 0 0 0 0 0 0 0 0 0 0 0 0 0 0 0 0 0 0 0 0 0 0 0 0 0 0 0 0 0 0 0
0 0 0 0 0 0 0 0 0 0 0 0 0 0 0 0 0 0 0 0 0 0 0 0 0 0 0 0 0 0 0 0 0 0 0 0 0 0 0 0 0 0 0
Wind_Speed
3 3 3 2 3 3 2 2 2 2 2 3 3 3 3 4 3 3 3 3 3 3 3 2 3 2 2 1 0 0 1 1 2 1 1 0 1 1 2 1 2 2 2
3 3 3 3 3 3 2 2 2 2 2 2 3 3 3 3 3 3 3 3 3 3 3 3 3 2 2 1 1 0 0 1 2 2 1 0 1 1 0 1 1 1 1
4 4 3 3 3 2 2 2 2 2 3 3 3 3 3 3 3 3 3 3 3 3 3 3 3 3 3 2 1 0 1 1 2 2 1 0 0 0 1 1 1 1 1
4 4 3 2 2 1 2 2 3 3 3 3 3 3 3 3 3 3 3 3 3 3 3 2 2 2 2 2 1 1 2 2 2 2 1 1 0 1 1 1 1 1 1
4 3 2 1 1 2 2 2 3 3 4 3 3 4 3 3 3 3 3 3 3 3 3 3 3 3 4 2 1 1 2 2 2 2 1 1 1 1 1 0 1 1 2
3 2 2 2 2 2 2 2 3 3 3 3 3 3 4 3 5 5 3 2 2 2 3 4 4 4 5 4 4 3 3 3 3 2 2 2 1 1 1 1 1 1 1
3 2 2 2 2 1 2 2 2 2 2 2 2 2 3 4 6 6 5 2 2 2 2 3 3 4 4 3 4 5 4 3 3 4 3 3 2 2 2 1 1 1 1
3 2 2 2 2 1 2 1 1 1 1 1 2 3 3 4 6 6 5 3 2 2 2 2 2 3 4 3 4 4 4 3 2 2 2 2 2 2 2 2 2 1 1
3 3 2 2 2 1 1 0 1 0 1 1 1 2 3 4 6 5 4 2 2 3 3 2 2 3 4 5 4 4 4 3 3 3 1 1 1 2 3 2 2 2 1
3 3 2 2 2 2 1 1 1 0 1 1 2 2 2 3 5 5 3 2 2 2 3 3 3 3 3 4 3 3 3 2 3 3 3 3 1 1 2 3 3 2 1
3 3 2 2 2 2 1 1 1 1 1 1 2 3 2 3 3 4 3 1 1 1 2 2 2 3 4 3 1 1 1 1 1 1 2 2 2 1 1 2 3 3 3
3 2 2 1 1 1 1 1 0 0 1 2 2 3 3 3 2 3 3 2 1 1 1 2 3 5 5 5 2 2 2 1 1 1 2 2 2 2 2 2 3 4 5
3 2 1 1 0 0 1 0 0 0 0 1 1 2 3 3 3 3 3 3 3 1 1 3 5 6 5 3 3 3 2 1 1 1 1 2 2 2 2 2 3 2 3
3 2 1 1 1 1 0 1 1 1 1 1 1 2 2 2 2 2 2 2 3 2 2 4 6 5 3 3 3 3 1 1 1 1 2 2 2 2 2 1 1 2 2
2 2 2 1 1 1 1 1 2 3 4 3 3 2 2 2 4 3 1 1 1 1 2 2 3 3 3 3 2 2 2 1 1 1 1 2 2 2 2 1 1 1 1
2 2 2 1 1 1 1 2 4 4 6 6 6 5 4 6 6 5 4 3 3 3 1 2 2 2 2 2 2 2 1 1 2 2 2 2 2 2 3 2 1 1 2
3 3 2 2 2 2 2 2 3 5 5 6 7 7 7 7 7 6 4 4 4 2 0 2 3 3 3 2 2 2 2 2 2 2 2 2 2 2 2 2 2 2 3
4 4 3 3 3 3 3 3 3 3 3 4 5 7 8 9 8 7 4 2 3 1 2 3 3 4 3 3 3 2 2 2 2 2 2 2 2 2 2 3 3 3 3
3 3 3 3 3 3 3 3 3 4 3 4 4 5 7 6 6 6 3 2 3 4 3 4 4 4 4 3 3 3 3 3 3 2 2 3 3 2 3 3 3 4 3
4 6 5 3 3 3 3 3 3 3 3 3 4 4 3 1 2 3 3 3 4 5 5 5 5 4 4 4 3 3 3 3 3 3 3 3 3 3 4 4 4 3 3
3 4 5 3 3 3 3 4 4 4 4 4 5 6 6 3 4 5 4 4 5 6 5 5 5 4 4 4 4 4 4 4 4 4 4 4 3 3 4 4 4 4 4
4 4 3 3 4 4 4 4 4 4 5 6 5 5 8 5 4 5 5 5 6 6 6 5 5 5 5 5 4 4 4 4 4 4 4 4 4 4 4 3 4 4 4
4 4 4 4 4 5 5 4 4 5 5 6 5 5 4 5 5 6 6 6 6 6 5 5 5 5 5 5 5 5 5 6 6 5 4 4 4 3 3 4 5 4 4
4 5 5 4 4 4 5 5 5 5 6 6 6 6 6 6 6 7 7 6 6 6 6 5 6 8 9 6 5 5 6 6 5 5 6 5 5 4 4 4 4 5 5
4 5 5 5 5 5 5 5 6 6 6 6 6 6 6 7 7 7 7 7 7 7 8 7 6 7 9 10 8 7 7 8 7 5 5 5 5 5 5 5 5 5 5
5 5 5 5 5 5 5 6 6 6 6 6 6 6 6 7 7 7 7 6 6 6 7 6 7 9 9 8 8 9 8 8 8 8 5 4 5 6 5 5 6 6 6
Wind_Direction
109 93 82 70 67 60 48 36 36 23 18 28 22 22 19 16 10 15 12 9 13 359 356 4 350 345 346 330 334 137 159 158 174 242 258 277 338 5 0 8 15 17 20
118 102 89 75 68 58 38 19 30 23 15 27 28 30 23 21 13 16 12 11 9 7 357 1 349 357 352 340 341 214 180 177 160 175 226 287 286 257 345 8 5 9 3
119 109 93 79 75 61 31 18 24 27 22 26 33 26 15 14 15 7 12 10 7 4 1 5 349 2 355 355 1 71 123 112 128 143 169 306 313 328 47 26 19 358 330
126 116 108 99 91 65 41 39 35 44 42 32 27 21 16 15 11 1 11 15 10 7 5 0 350 4 4 14 33 84 116 108 108 118 124 87 34 7 76 63 22 8 350
126 119 123 112 89 63 52 46 41 40 40 33 32 17 5 8 4 0 3 15 7 9 5 1 7 17 19 24 76 121 125 119 120 124 118 92 65 73 96 165 86 7 353
124 127 132 105 81 73 66 55 43 33 27 30 29 14 2 0 2 10 17 18 11 11 3 356 1 10 9 23 47 71 115 136 142 141 139 153 189 178 154 135 121 75 340
125 128 128 113 91 92 90 64 46 26 30 17 6 10 358 351 5 12 21 34 26 7 7 0 3 6 4 23 42 49 54 75 124 150 154 184 184 192 153 113 117 130 217
139 141 143 131 121 105 90 65 13 357 16 355 347 352 356 353 7 11 17 31 22 10 10 9 18 9 13 34 57 55 43 37 52 115 159 190 190 186 159 150 147 96 327
144 153 159 152 138 123 117 312 320 359 349 326 315 341 352 340 357 11 21 24 23 9 4 16 40 38 30 51 66 58 38 19 33 55 68 155 200 198 167 117 92 79 9
164 163 162 152 149 170 202 242 301 331 276 307 323 328 335 327 338 4 25 40 22 3 2 6 23 32 33 47 73 74 48 358 9 16 18 17 11 268 201 174 164 145 167
162 147 144 152 174 198 209 227 250 296 326 328 328 321 320 311 324 349 15 59 45 10 1 347 338 352 358 6 49 95 240 296 360 13 359 352 349 327 278 213 188 174 182
143 139 150 177 201 176 178 254 308 349 349 328 337 327 320 319 325 334 0 21 79 82 341 320 318 330 332 333 341 320 321 359 39 26 14 338 316 297 285 269 236 220 219
138 147 177 203 247 154 167 211 329 336 334 317 334 313 309 322 332 347 2 12 32 63 299 304 317 325 326 323 319 327 353 52 58 33 315 285 266 267 294 312 309 280 263
153 175 190 193 276 314 289 206 193 222 239 280 283 280 291 310 318 327 338 355 10 10 341 325 325 328 335 314 321 341 356 190 187 223 254 277 302 314 302 287 299 323 332
169 186 193 203 225 271 290 258 231 235 214 208 221 218 218 261 264 252 265 305 321 325 336 348 356 351 347 339 331 316 315 324 265 255 252 278 292 298 292 287 274 299 279
176 198 205 212 229 233 264 307 291 258 257 237 228 220 234 240 247 254 263 279 298 318 14 332 321 312 296 292 296 304 301 268 250 244 243 246 259 269 284 292 267 249 264
188 203 209 213 223 233 234 239 280 304 293 270 256 251 245 253 258 263 273 294 294 267 242 278 280 278 275 268 249 246 259 260 243 234 243 256 261 268 271 281 284 279 274
198 209 208 217 225 232 235 237 234 243 277 290 281 260 254 252 258 268 288 337 312 288 237 258 268 265 260 253 245 242 254 266 259 256 256 258 258 259 269 272 270 262 265
206 220 224 230 232 235 239 241 240 240 247 261 283 288 269 260 263 262 226 213 255 270 266 261 256 254 250 241 237 236 239 247 253 250 254 256 254 249 258 263 268 275 267
217 230 227 230 240 248 246 242 244 245 251 255 259 262 271 269 270 265 225 226 240 252 256 259 257 247 242 238 236 236 240 247 252 247 253 257 256 245 253 264 267 268 265
213 232 239 241 238 243 246 243 241 237 242 249 252 251 233 223 241 251 249 242 239 246 249 248 248 248 241 234 230 230 230 239 243 241 246 252 253 255 257 258 262 263 266
208 218 227 239 244 245 248 248 245 239 242 250 258 264 251 239 240 245 249 251 249 244 239 235 239 240 231 226 221 221 228 239 244 243 245 249 251 254 258 259 264 265 265
211 223 233 240 245 252 257 255 251 248 248 249 251 251 244 239 243 244 249 251 249 249 243 232 233 243 243 234 224 215 219 228 230 225 227 240 249 254 254 257 263 267 269
215 226 234 243 246 247 248 253 254 252 250 250 250 247 244 241 243 245 246 245 246 246 241 233 230 233 238 239 233 226 225 229 228 225 220 226 236 244 247 254 260 263 267
217 226 233 239 244 246 248 251 254 253 252 252 249 247 246 244 244 246 245 244 244 245 245 239 236 237 239 239 238 236 234 232 232 228 223 223 234 239 242 248 253 260 262
229 235 239 241 243 245 245 248 252 253 251 252 251 248 245 244 245 246 245 243 241 241 244 242 237 236 238 240 242 241 239 236 236 233 229 231 238 245 245 249 254 255 259